EW2235 Weather Reports


Display with metric or nautical units.
time (UTC)temp
F
wind
direction
speed
MPH
gust
MPH
rain 1hr
in
rain 24hr
in
rain mn
in
humidity
%
barometer
mb
20260902030330 62 41 0.0 2.0 0.00 0.02 0.02 76 1011.9
20260902025839 63 233 0.0 2.0 0.00 0.02 0.02 76 1011.9
20260902025319 63 311 0.0 6.0 0.00 0.02 0.02 76 1011.9
20260902024820 63 51 0.0 6.0 0.00 0.02 0.02 76 1011.9
20260902024319 63 305 0.0 1.0 0.00 0.02 0.02 76 1011.8
20260902023828 63 301 0.0 1.0 0.00 0.02 0.02 76 1011.8
20260902023327 63 293 0.0 0.0 0.00 0.02 0.02 76 1011.9
20260902022836 63 327 0.0 0.0 0.00 0.02 0.02 75 1011.8
20260902022315 63 308 0.0 2.0 0.00 0.02 0.02 75 1011.7
20260902021818 63 307 0.0 0.0 0.00 0.02 0.02 75 1011.8
20260902021324 64 296 0.0 0.0 0.00 0.02 0.02 75 1011.7
20260902020826 64 290 0.0 2.0 0.00 0.02 0.02 75 1011.7
20260902020326 64 301 0.0 3.0 0.00 0.02 0.02 74 1011.7
20260902015835 64 140 0.0 3.0 0.00 0.02 0.02 74 1011.7
20260902015315 64 314 0.0 4.0 0.00 0.02 0.02 74 1011.7
20260902014818 64 296 0.0 4.0 0.00 0.02 0.02 74 1011.6
20260902014330 64 345 0.0 0.0 0.00 0.02 0.02 74 1011.6
20260902013813 64 289 0.0 0.0 0.00 0.02 0.02 74 1011.6
20260902013312 64 321 0.0 4.0 0.00 0.02 0.02 74 1011.6
20260902012822 64 308 0.0 4.0 0.00 0.02 0.02 74 1011.5
20260902012321 65 309 0.0 2.0 0.00 0.02 0.02 74 1011.6
20260902011823 65 281 0.0 6.0 0.00 0.02 0.02 74 1011.6
20260902011330 65 29 1.0 6.0 0.00 0.02 0.02 73 1011.6
20260902010832 65 288 0.0 1.0 0.00 0.02 0.02 72 1011.5
20260902010314 65 323 0.0 3.0 0.00 0.02 0.02 71 1011.4
20260902005819 65 345 0.0 4.0 0.00 0.02 0.02 70 1011.4
20260902005320 65 349 0.0 4.0 0.00 0.02 0.02 70 1011.4
20260902004829 66 293 0.0 2.0 0.00 0.02 0.02 70 1011.4
20260902004327 66 63 0.0 7.0 0.00 0.02 0.02 70 1011.4
20260902003814 66 199 1.0 7.0 0.00 0.02 0.02 70 1011.5
20260902003320 66 169 0.0 4.0 0.00 0.02 0.02 70 1011.3
20260902002823 66 205 0.0 4.0 0.00 0.02 0.02 70 1011.3
20260902002322 66 317 0.0 4.0 0.00 0.02 0.02 70 1011.3
20260902001831 66 320 0.0 7.0 0.00 0.02 0.02 70 1011.2
20260902001331 66 77 0.0 7.0 0.00 0.02 0.02 70 1011.2
20260902000813 66 151 2.0 7.0 0.00 0.02 0.02 69 1011.2
20260902000322 66 89 0.0 3.0 0.00 0.02 0.02 70 1011.2
20260901235820 66 309 0.0 3.0 0.00 0.02 0.02 69 1011.2
20260901235316 66 154 0.0 3.0 0.00 0.02 0.02 69 1011.3
20260901234825 66 334 0.0 5.0 0.00 0.02 0.02 69 1011.3
20260901234324 66 345 0.0 5.0 0.00 0.02 0.02 69 1011.4
20260901233813 66 346 1.0 5.0 0.00 0.02 0.02 69 1011.4
20260901233319 66 134 0.0 6.0 0.00 0.02 0.02 70 1011.5
20260901232815 66 296 0.0 6.0 0.00 0.02 0.02 70 1011.5
20260901232320 65 170 0.0 5.0 0.00 0.02 0.02 70 1011.4
20260901231829 66 257 0.0 0.0 0.00 0.02 0.02 70 1011.5
20260901231333 66 301 0.0 2.0 0.00 0.02 0.02 71 1011.6
20260901230814 66 300 0.0 2.0 0.00 0.02 0.02 70 1011.7
20260901230320 66 310 0.0 5.0 0.00 0.02 0.02 71 1011.7
20260901225822 66 301 0.0 3.0 0.00 0.02 0.02 71 1011.7
20260901225328 66 155 0.0 0.0 0.00 0.02 0.02 72 1011.7
20260901224831 65 129 0.0 0.0 0.00 0.02 0.02 72 1011.7
20260901224330 65 292 0.0 0.0 0.00 0.02 0.02 72 1011.8
20260901223820 65 306 0.0 0.0 0.00 0.02 0.02 72 1011.8
20260901223320 65 306 0.0 1.0 0.00 0.02 0.02 72 1011.8
20260901222822 65 349 0.0 1.0 0.00 0.02 0.02 73 1011.8
20260901222321 65 300 0.0 4.0 0.00 0.02 0.02 73 1011.8
20260901221831 65 169 0.0 0.0 0.00 0.02 0.02 73 1011.8
20260901221351 65 346 0.0 0.0 0.00 0.02 0.02 75 1011.8
20260901220839 65 40 0.0 0.0 0.00 0.02 0.02 75 1011.8
20260901220337 64 172 0.0 0.0 0.00 0.02 0.02 76 1011.8
20260901215846 64 172 0.0 0.0 0.00 0.02 0.02 76 1011.7
20260901215333 64 335 0.0 0.0 0.00 0.02 0.02 76 1011.7
20260901214843 64 153 0.0 0.0 0.00 0.02 0.02 76 1011.7
20260901214347 64 298 0.0 0.0 0.00 0.02 0.02 76 1011.8
20260901213836 64 210 0.0 0.0 0.00 0.02 0.02 75 1011.8
20260901213313 64 308 0.0 0.0 0.00 0.02 0.02 74 1011.8
20260901212824 64 32 0.0 0.0 0.00 0.02 0.02 74 1011.8
20260901212319 64 309 0.0 0.0 0.00 0.02 0.02 75 1011.8
20260901211821 64 334 0.0 0.0 0.00 0.02 0.02 75 1011.8
20260901211335 64 31 0.0 1.0 0.00 0.02 0.02 76 1011.8
20260901210818 64 305 0.0 3.0 0.00 0.02 0.02 76 1011.8
20260901210318 64 330 0.0 3.0 0.00 0.02 0.02 76 1011.8
20260901205827 64 173 0.0 2.0 0.00 0.02 0.02 77 1011.8
20260901205326 64 358 0.0 2.0 0.00 0.02 0.02 77 1011.8
20260901204836 64 234 0.0 0.0 0.00 0.02 0.02 78 1011.8
20260901204315 64 299 0.0 0.0 0.00 0.02 0.02 77 1011.9
20260901203818 64 304 0.0 0.0 0.00 0.02 0.02 77 1011.9
20260901203317 64 307 0.0 0.0 0.00 0.02 0.02 77 1012.0
20260901202826 64 318 0.0 0.0 0.00 0.02 0.02 78 1011.9
20260901202327 64 136 0.0 0.0 0.00 0.02 0.02 79 1011.9
20260901201836 63 132 0.0 0.0 0.00 0.02 0.02 79 1011.9
20260901201316 63 32 0.0 4.0 0.00 0.02 0.02 78 1012.0
20260901200816 63 248 0.0 2.0 0.00 0.02 0.02 79 1012.0
20260901200321 63 324 0.0 2.0 0.00 0.03 0.02 79 1012.0
20260901195830 63 130 0.0 2.0 0.00 0.03 0.02 79 1012.0
20260901195315 64 254 0.0 1.0 0.00 0.03 0.02 79 1011.9
20260901194824 64 360 0.0 0.0 0.00 0.03 0.02 78 1011.9
20260901194330 64 175 0.0 0.0 0.00 0.03 0.02 80 1012.0
20260901193838 63 174 0.0 4.0 0.00 0.03 0.02 80 1012.0
20260901193316 63 283 0.0 4.0 0.00 0.03 0.02 79 1012.1
20260901192821 64 311 0.0 2.0 0.00 0.03 0.02 78 1012.2
20260901192320 64 212 0.0 2.0 0.00 0.03 0.02 80 1012.2
20260901191830 64 144 0.0 2.0 0.00 0.03 0.02 81 1012.2
20260901191313 63 121 0.0 3.0 0.00 0.03 0.02 81 1012.4
20260901190835 63 189 0.0 3.0 0.00 0.03 0.02 83 1012.4
20260901190319 63 180 0.0 2.0 0.00 0.03 0.02 84 1012.4
20260901185821 62 130 0.0 2.0 0.00 0.03 0.02 85 1012.4
20260901185328 62 41 0.0 1.0 0.00 0.03 0.02 86 1012.4
20260901184831 61 38 0.0 2.0 0.00 0.03 0.02 87 1012.5
20260901184331 62 293 0.0 2.0 0.00 0.03 0.02 88 1012.5
20260901183813 61 295 0.0 0.0 0.00 0.03 0.02 90 1012.5
20260901183319 61 295 0.0 2.0 0.00 0.03 0.02 90 1012.6
20260901182822 60 188 0.0 2.0 0.00 0.03 0.02 90 1012.6
20260901182328 60 196 0.0 2.0 0.00 0.03 0.02 91 1012.6
20260901181818 60 82 0.0 2.0 0.00 0.03 0.02 91 1012.6
20260901181317 60 17 0.0 1.0 0.00 0.03 0.02 92 1012.6
20260901180826 60 206 0.0 1.0 0.00 0.03 0.02 92 1012.6
20260901180312 59 130 0.0 1.0 0.00 0.03 0.02 92 1012.6
20260901175815 59 92 0.0 0.0 0.00 0.03 0.02 92 1012.6
20260901175337 59 139 0.0 0.0 0.00 0.03 0.02 92 1012.7
20260901174846 59 165 0.0 0.0 0.00 0.03 0.02 92 1012.7
20260901174345 59 186 0.0 0.0 0.00 0.03 0.02 92 1012.7
20260901173850 58 248 0.0 2.0 0.00 0.03 0.02 92 1012.6
20260901173356 58 329 0.0 2.0 0.00 0.03 0.02 92 1012.6
20260901172846 58 165 0.0 1.0 0.01 0.03 0.02 92 1012.6
20260901172352 58 306 0.0 0.0 0.01 0.03 0.02 92 1012.6
20260901171834 58 310 0.0 0.0 0.01 0.03 0.02 92 1012.5
20260901171319 58 317 0.0 1.0 0.01 0.03 0.02 92 1012.5
20260901170821 58 51 0.0 1.0 0.01 0.03 0.02 92 1012.4
20260901170328 57 302 0.0 0.0 0.01 0.03 0.02 92 1012.5
20260901165830 57 338 0.0 0.0 0.01 0.03 0.02 92 1012.5
20260901165337 57 299 0.0 0.0 0.01 0.03 0.02 92 1012.4
20260901164819 57 304 0.0 2.0 0.02 0.03 0.02 92 1012.5
20260901164318 57 319 0.0 2.0 0.02 0.03 0.02 92 1012.4
20260901163820 57 294 0.0 1.0 0.02 0.03 0.02 92 1012.5
20260901163326 57 150 0.0 1.0 0.02 0.03 0.02 92 1012.4
20260901162829 57 224 0.0 1.0 0.01 0.02 0.01 92 1012.6
20260901162334 57 300 0.0 1.0 0.01 0.02 0.01 92 1012.5
20260901161816 57 345 0.0 1.0 0.01 0.02 0.01 92 1012.5
20260901161315 57 305 0.0 0.0 0.01 0.02 0.01 92 1012.5
20260901160824 56 307 0.0 0.0 0.01 0.02 0.01 92 1012.5
20260901160324 56 304 0.0 0.0 0.01 0.02 0.01 92 1012.4
20260901155826 56 239 0.0 2.0 0.01 0.02 0.01 92 1012.4
20260901155317 56 301 0.0 2.0 0.01 0.02 0.01 92 1012.4
20260901154820 56 300 0.0 0.0 0.00 0.01 0.00 92 1012.5
20260901154318 56 309 0.0 0.0 0.00 0.01 0.00 92 1012.5
20260901153326 56 44 0.0 0.0 0.00 0.01 0.00 92 1012.5
20260901152835 56 322 0.0 0.0 0.00 0.01 0.00 92 1012.4
20260901152315 56 161 0.0 1.0 0.00 0.01 0.00 92 1012.4
20260901151817 56 231 0.0 1.0 0.00 0.01 0.00 92 1012.4
20260901151324 56 350 0.0 0.0 0.00 0.01 0.00 91 1012.3
20260901150826 57 58 0.0 0.0 0.00 0.01 0.00 91 1012.3
20260901150326 57 321 0.0 0.0 0.00 0.01 0.00 91 1012.2
20260901145835 57 310 0.0 0.0 0.00 0.01 0.00 91 1012.1
20260901145315 57 143 0.0 0.0 0.00 0.01 0.00 90 1012.1
20260901144817 57 240 0.0 1.0 0.00 0.01 0.00 90 1012.1
20260901144323 57 173 0.0 0.0 0.00 0.01 0.00 90 1012.0
20260901143825 57 309 0.0 0.0 0.00 0.01 0.00 90 1012.0
20260901143333 57 110 0.0 0.0 0.00 0.01 0.00 90 1012.0
20260901142814 57 293 0.0 0.0 0.00 0.01 0.00 90 1012.0
20260901142314 57 321 0.0 0.0 0.00 0.01 0.00 90 1012.0
20260901141816 57 163 0.0 0.0 0.00 0.01 0.00 90 1011.9
20260901141323 57 157 0.0 0.0 0.00 0.01 0.00 90 1011.9
20260901140825 57 144 0.0 0.0 0.00 0.01 0.00 90 1011.9
20260901140331 57 323 0.0 1.0 0.00 0.01 0.00 90 1011.9
20260901135815 57 159 0.0 1.0 0.00 0.01 0.00 90 1011.8
20260901135314 57 276 0.0 0.0 0.00 0.01 0.00 90 1011.8
20260901134824 57 55 0.0 1.0 0.00 0.01 0.00 90 1011.7
20260901134320 57 22 0.0 0.0 0.00 0.01 0.00 90 1011.7
20260901133823 57 162 0.0 0.0 0.00 0.01 0.00 90 1011.7
20260901133329 57 331 0.0 0.0 0.00 0.01 0.00 90 1011.7
20260901132832 57 121 0.0 0.0 0.00 0.01 0.00 90 1011.7
20260901132338 57 121 0.0 0.0 0.00 0.01 0.00 90 1011.7
20260901131821 57 331 0.0 1.0 0.00 0.01 0.00 90 1011.7
20260901131319 57 112 0.0 1.0 0.00 0.01 0.00 90 1011.7
20260901130829 57 246 0.0 1.0 0.00 0.01 0.00 90 1011.6
20260901130328 57 308 0.0 0.0 0.00 0.01 0.00 90 1011.6
20260901125831 57 322 0.0 0.0 0.00 0.01 0.00 90 1011.6
20260901125337 57 228 0.0 0.0 0.00 0.01 0.00 90 1011.6
20260901124819 57 214 0.0 2.0 0.00 0.01 0.00 90 1011.5
20260901124319 57 267 0.0 2.0 0.00 0.01 0.00 90 1011.5
20260901123829 57 351 0.0 0.0 0.00 0.01 0.00 90 1011.5
20260901123325 56 348 0.0 0.0 0.00 0.01 0.00 90 1011.5
20260901122814 56 308 0.0 2.0 0.00 0.01 0.00 90 1011.5
20260901122320 56 300 0.0 2.0 0.00 0.01 0.00 90 1011.6
20260901121823 56 304 0.0 0.0 0.00 0.01 0.00 90 1011.6
20260901121322 56 18 0.0 0.0 0.00 0.01 0.00 90 1011.6
20260901120832 56 18 0.0 0.0 0.00 0.01 0.00 90 1011.5
20260901120359 56 132 0.0 0.0 0.00 0.01 0.00 90 1011.5
20260901115817 56 302 0.0 0.0 0.00 0.01 0.00 90 1011.5
20260901115316 56 216 0.0 0.0 0.00 0.01 0.00 90 1011.5
20260901114825 56 217 0.0 0.0 0.00 0.01 0.00 90 1011.6
20260901114324 56 350 0.0 3.0 0.00 0.01 0.00 90 1011.6
20260901113833 56 166 0.0 3.0 0.00 0.01 0.00 90 1011.5
20260901113333 56 13 0.0 1.0 0.00 0.01 0.00 91 1011.6
20260901112840 56 305 0.0 1.0 0.00 0.01 0.00 91 1011.6
20260901112340 56 188 0.0 2.0 0.00 0.01 0.00 91 1011.6
20260901111849 56 356 0.0 1.0 0.00 0.01 0.00 91 1011.5
20260901111334 56 205 0.0 0.0 0.00 0.01 0.00 91 1011.3
20260901110837 56 74 0.0 0.0 0.00 0.01 0.00 91 1011.3
20260901110342 56 110 0.0 1.0 0.00 0.01 0.00 91 1011.3
20260901105850 56 145 0.0 0.0 0.00 0.01 0.00 90 1011.2
20260901105353 56 48 0.0 3.0 0.00 0.01 0.00 90 1011.1
20260901104849 56 143 0.0 3.0 0.00 0.01 0.00 90 1011.2
20260901104335 56 140 0.0 1.0 0.00 0.01 0.00 90 1011.3
20260901103845 56 17 0.0 4.0 0.00 0.01 0.00 90 1011.2
20260901103344 56 313 0.0 7.0 0.00 0.01 0.00 90 1011.1
20260901102853 56 147 1.0 7.0 0.00 0.01 0.00 90 1011.1
20260901102338 56 90 0.0 1.0 0.00 0.01 0.00 90 1011.1
20260901101840 56 40 0.0 0.0 0.00 0.01 0.00 90 1011.1
20260901101345 56 314 0.0 5.0 0.00 0.01 0.00 90 1011.1
20260901100835 56 321 1.0 5.0 0.00 0.01 0.00 89 1011.1
20260901100313 57 128 0.0 4.0 0.00 0.01 0.00 89 1011.1
20260901095815 57 174 0.0 4.0 0.00 0.01 0.00 89 1011.1
20260901095321 57 150 0.0 4.0 0.00 0.01 0.00 89 1011.0
20260901094823 57 322 0.0 0.0 0.00 0.01 0.00 89 1011.0
20260901094330 57 134 0.0 2.0 0.00 0.01 0.00 89 1011.0
20260901093812 57 116 0.0 2.0 0.00 0.01 0.00 89 1011.0
20260901093312 57 2 0.0 1.0 0.00 0.01 0.00 88 1011.0
20260901092814 57 233 0.0 1.0 0.00 0.01 0.00 88 1010.9
20260901091911 57 37 0.0 5.0 0.00 0.01 0.00 88 1010.9
20260901091324 58 167 0.0 5.0 0.00 0.01 0.00 88 1010.8
20260901090814 58 8 0.0 0.0 0.00 0.01 0.00 88 1010.7
20260901090313 58 314 0.0 5.0 0.00 0.01 0.00 88 1010.7
20260901085815 58 190 0.0 5.0 0.00 0.01 0.00 88 1010.6
20260901085321 58 309 0.0 6.0 0.00 0.01 0.00 87 1010.6
20260901084824 58 297 1.0 6.0 0.00 0.01 0.00 87 1010.5
20260901084330 58 324 0.0 1.0 0.00 0.01 0.00 87 1010.6
20260901083834 58 317 0.0 1.0 0.00 0.01 0.00 87 1010.7
20260901083340 58 276 0.0 2.0 0.00 0.01 0.00 87 1010.7
20260901082850 58 299 0.0 0.0 0.00 0.01 0.00 87 1010.7
20260901082348 58 311 0.0 4.0 0.00 0.01 0.00 87 1010.7
20260901081838 58 309 0.0 4.0 0.00 0.01 0.00 87 1010.7
20260901081343 58 310 0.0 5.0 0.00 0.01 0.00 87 1010.8
20260901080846 58 260 0.0 7.0 0.00 0.01 0.00 87 1010.7
20260901080352 58 176 1.0 7.0 0.00 0.01 0.00 87 1010.7
20260901075840 58 167 1.0 5.0 0.00 0.01 0.00 87 1010.6
20260901075339 59 155 0.0 1.0 0.00 0.01 0.00 86 1010.6
20260901074844 59 144 0.0 3.0 0.00 0.01 0.00 86 1010.5
20260901074350 59 215 0.0 5.0 0.00 0.01 0.00 86 1010.6
20260901073900 59 187 0.0 5.0 0.00 0.01 0.00 85 1010.5
20260901073339 59 212 0.0 2.0 0.00 0.01 0.00 85 1010.4
20260901072848 59 227 0.0 7.0 0.00 0.01 0.00 85 1010.4
20260901072335 60 143 0.0 7.0 0.00 0.01 0.00 85 1010.4
20260901071844 60 127 0.0 5.0 0.00 0.01 0.00 84 1010.4
20260901071351 60 156 1.0 8.0 0.00 0.01 0.00 84 1010.4
20260901070325 60 199 1.0 6.0 0.00 0.01 0.01 83 1010.2
20260901065835 60 185 1.0 5.0 0.00 0.01 0.01 83 1010.2
20260901065313 61 172 0.0 5.0 0.00 0.01 0.01 82 1010.0
20260901064815 61 170 0.0 5.0 0.00 0.01 0.01 82 1010.1
20260901064321 61 150 0.0 7.0 0.00 0.01 0.01 81 1010.1
20260901063823 61 210 1.0 9.0 0.00 0.01 0.01 81 1010.0
20260901063323 62 202 0.0 9.0 0.00 0.01 0.01 80 1009.9
20260901062832 62 158 0.0 6.0 0.00 0.01 0.01 79 1009.8
20260901062312 63 181 0.0 2.0 0.00 0.01 0.01 78 1009.7
20260901061815 63 169 0.0 1.0 0.00 0.01 0.01 77 1009.6
20260901061321 63 158 0.0 2.0 0.00 0.01 0.01 76 1009.6
20260901060824 64 218 0.0 8.0 0.00 0.01 0.01 75 1009.5
20260901060330 64 179 1.0 8.0 0.00 0.01 0.01 73 1009.5
20260901055813 65 198 0.0 2.0 0.00 0.01 0.01 72 1009.5
20260901055312 66 173 0.0 2.0 0.00 0.01 0.01 71 1009.5
20260901054814 66 203 0.0 0.0 0.00 0.01 0.01 70 1009.4
20260901054321 67 202 0.0 0.0 0.00 0.01 0.01 69 1009.2
20260901053830 67 150 0.0 0.0 0.00 0.01 0.01 68 1009.2
20260901053337 68 150 0.0 0.0 0.00 0.01 0.01 67 1009.2
20260901052819 68 193 0.0 0.0 0.00 0.01 0.01 68 1009.3
20260901052318 68 215 0.0 0.0 0.00 0.01 0.01 68 1009.2
20260901051827 68 211 0.0 0.0 0.00 0.01 0.01 67 1009.2
20260901051327 69 307 0.0 0.0 0.00 0.01 0.01 66 1009.2
20260901050829 69 307 0.0 0.0 0.00 0.01 0.01 65 1009.1
20260901050335 70 307 0.0 0.0 0.00 0.01 0.01 64 1009.1
20260901045817 70 307 0.0 0.0 0.00 0.01 0.01 63 1009.0
20260901045316 70 307 0.0 0.0 0.00 0.01 0.01 63 1008.9
20260901044826 70 263 0.0 0.0 0.00 0.01 0.01 63 1008.9
20260901044325 70 158 0.0 0.0 0.00 0.01 0.01 62 1008.9
20260901043835 71 245 0.0 3.0 0.00 0.01 0.01 61 1008.8
20260901043314 71 173 0.0 2.0 0.00 0.01 0.01 60 1008.8
20260901042816 71 172 0.0 0.0 0.00 0.01 0.01 59 1008.6
20260901042316 71 167 0.0 0.0 0.00 0.01 0.01 57 1008.5
20260901041825 72 167 0.0 0.0 0.00 0.01 0.01 56 1008.5
20260901041325 72 167 0.0 0.0 0.00 0.01 0.01 55 1008.5
20260901040835 72 167 0.0 0.0 0.00 0.01 0.01 54 1008.5
20260901040331 73 167 0.0 0.0 0.00 0.01 0.01 53 1008.4
20260901035813 72 200 0.0 0.0 0.00 0.01 0.01 53 1008.4
20260901035319 72 217 0.0 0.0 0.00 0.01 0.01 52 1008.4
20260901034821 72 137 0.0 0.0 0.00 0.01 0.01 53 1008.3
20260901034408 72 137 0.0 0.0 0.00 0.01 0.01 53 1008.2
20260901033832 72 137 0.0 0.0 0.00 0.01 0.01 54 1008.1
20260901033352 72 137 0.0 0.0 0.00 0.01 0.01 53 1008.0
20260901032842 73 137 0.0 0.0 0.00 0.01 0.01 53 1008.0
20260901032348 73 137 0.0 0.0 0.00 0.01 0.01 52 1007.8
20260901031850 73 137 0.0 0.0 0.00 0.01 0.01 52 1007.7
20260901031335 74 137 0.0 0.0 0.00 0.01 0.01 52 1007.6
20260901030845 74 137 0.0 0.0 0.00 0.01 0.01 52 1007.6
20260901030344 74 137 0.0 0.0 0.00 0.01 0.01 51 1007.7